date,time,SUV Intensity [MED/Hr],UV Index,Daily total [MED],Since Last [MED]
11/02/2022,00:04:31,-0.000,0.0,0.0,0.0
11/02/2022,00:05:31,0.001,0.0,0.0,0.0
11/02/2022,00:06:31,0.001,0.0,0.0,0.0
11/02/2022,00:07:30,-0.001,0.0,0.0,0.0
11/02/2022,00:08:39,0.000,0.0,0.0,0.0
11/02/2022,00:09:39,-0.000,0.0,0.0,0.0
11/02/2022,00:10:31,-0.001,0.0,0.0,0.0
11/02/2022,00:11:30,0.001,0.0,0.0,0.0
11/02/2022,00:12:32,0.000,0.0,0.0,0.0
11/02/2022,00:13:30,-0.000,0.0,0.0,0.0
11/02/2022,00:14:31,-0.001,0.0,0.0,0.0
11/02/2022,00:15:31,0.000,0.0,0.0,0.0
11/02/2022,00:16:22,0.000,0.0,0.0,0.0
11/02/2022,00:17:31,-0.001,0.0,0.0,0.0
11/02/2022,00:18:32,0.001,0.0,0.0,0.0
11/02/2022,00:19:39,0.000,0.0,0.0,0.0
11/02/2022,00:20:31,0.000,0.0,0.0,0.0
11/02/2022,00:21:31,0.000,0.0,0.0,0.0
11/02/2022,00:22:31,0.001,0.0,0.0,0.0
11/02/2022,00:23:31,0.001,0.0,0.0,0.0
11/02/2022,00:24:31,0.000,0.0,0.0,0.0
11/02/2022,00:25:31,0.000,0.0,0.0,0.0
11/02/2022,00:26:31,0.000,0.0,0.0,0.0
11/02/2022,00:27:31,0.001,0.0,0.0,0.0
11/02/2022,00:28:31,0.000,0.0,0.0,0.0
11/02/2022,00:29:31,0.000,0.0,0.0,0.0
11/02/2022,00:30:31,0.000,0.0,0.0,0.0
11/02/2022,00:31:31,0.001,0.0,0.0,0.0
11/02/2022,00:32:31,0.000,0.0,0.0,0.0
11/02/2022,00:33:31,0.000,0.0,0.0,0.0
11/02/2022,00:34:30,0.001,0.0,0.0,0.0
11/02/2022,00:35:31,-0.000,0.0,0.0,0.0
11/02/2022,00:36:31,-0.000,0.0,0.0,0.0
11/02/2022,00:37:30,0.001,0.0,0.0,0.0
11/02/2022,00:38:31,0.000,0.0,0.0,0.0
11/02/2022,00:39:31,-0.000,0.0,0.0,0.0
11/02/2022,00:40:39,0.000,0.0,0.0,0.0
11/02/2022,00:41:30,-0.001,0.0,0.0,0.0
11/02/2022,00:42:32,-0.000,0.0,0.0,0.0
11/02/2022,00:43:39,0.000,0.0,0.0,0.0
11/02/2022,00:44:30,-0.000,0.0,0.0,0.0
11/02/2022,00:45:31,0.001,0.0,0.0,0.0
11/02/2022,00:46:30,0.000,0.0,0.0,0.0
11/02/2022,00:47:31,0.000,0.0,0.0,0.0
11/02/2022,00:48:31,0.000,0.0,0.0,0.0
11/02/2022,00:49:30,0.000,0.0,0.0,0.0
11/02/2022,00:50:39,0.000,0.0,0.0,0.0
11/02/2022,00:51:31,0.000,0.0,0.0,0.0
11/02/2022,00:52:32,0.001,0.0,0.0,0.0
11/02/2022,00:53:30,0.000,0.0,0.0,0.0
11/02/2022,00:54:32,0.000,0.0,0.0,0.0
11/02/2022,00:55:31,0.000,0.0,0.0,0.0
11/02/2022,00:56:31,0.000,0.0,0.0,0.0
11/02/2022,00:57:31,0.000,0.0,0.0,0.0
11/02/2022,00:58:30,0.000,0.0,0.0,0.0
11/02/2022,00:59:31,0.000,0.0,0.0,0.0
11/02/2022,01:00:31,-0.000,0.0,0.0,0.0
11/02/2022,01:01:39,0.000,0.0,0.0,0.0
11/02/2022,01:02:30,0.000,0.0,0.0,0.0
11/02/2022,01:03:31,0.001,0.0,0.0,0.0
11/02/2022,01:04:31,0.000,0.0,0.0,0.0
11/02/2022,01:05:31,0.000,0.0,0.0,0.0
11/02/2022,01:06:31,0.001,0.0,0.0,0.0
11/02/2022,01:07:31,0.000,0.0,0.0,0.0
11/02/2022,01:08:31,0.000,0.0,0.0,0.0
11/02/2022,01:09:31,0.000,0.0,0.0,0.0
11/02/2022,01:10:31,0.001,0.0,0.0,0.0
11/02/2022,01:11:40,-0.001,0.0,0.0,0.0
11/02/2022,01:12:39,0.001,0.0,0.0,0.0
11/02/2022,01:13:30,0.001,0.0,0.0,0.0
11/02/2022,01:14:31,0.000,0.0,0.0,0.0
11/02/2022,01:15:31,0.001,0.0,0.0,0.0
11/02/2022,01:16:31,0.000,0.0,0.0,0.0
11/02/2022,01:17:31,0.000,0.0,0.0,0.0
11/02/2022,01:18:32,0.000,0.0,0.0,0.0
11/02/2022,01:19:31,-0.001,0.0,0.0,0.0
11/02/2022,01:20:31,0.000,0.0,0.0,0.0
11/02/2022,01:21:31,0.000,0.0,0.0,0.0
11/02/2022,01:22:39,0.000,0.0,0.0,0.0
11/02/2022,01:23:31,0.000,0.0,0.0,0.0
11/02/2022,01:24:31,0.000,0.0,0.0,0.0
11/02/2022,01:25:31,0.000,0.0,0.0,0.0
11/02/2022,01:26:32,0.001,0.0,0.0,0.0
11/02/2022,01:27:31,0.000,0.0,0.0,0.0
11/02/2022,01:28:31,0.000,0.0,0.0,0.0
11/02/2022,01:29:39,0.000,0.0,0.0,0.0
11/02/2022,01:30:30,0.000,0.0,0.0,0.0
11/02/2022,01:31:31,0.000,0.0,0.0,0.0
11/02/2022,01:32:31,0.000,0.0,0.0,0.0
11/02/2022,01:33:31,0.000,0.0,0.0,0.0
11/02/2022,01:34:45,0.000,0.0,0.0,0.0
11/02/2022,01:36:32,0.001,0.0,0.0,0.0
11/02/2022,01:37:31,0.000,0.0,0.0,0.0
11/02/2022,01:38:31,0.000,0.0,0.0,0.0
11/02/2022,01:39:31,0.000,0.0,0.0,0.0
11/02/2022,01:40:31,0.001,0.0,0.0,0.0
11/02/2022,01:41:31,0.000,0.0,0.0,0.0
11/02/2022,01:42:32,0.000,0.0,0.0,0.0
11/02/2022,01:43:30,-0.000,0.0,0.0,0.0
11/02/2022,01:44:31,-0.001,0.0,0.0,0.0
11/02/2022,01:45:31,-0.001,0.0,0.0,0.0
11/02/2022,01:46:31,0.000,0.0,0.0,0.0
11/02/2022,01:47:40,0.001,0.0,0.0,0.0
11/02/2022,01:48:32,0.000,0.0,0.0,0.0
11/02/2022,01:49:31,0.000,0.0,0.0,0.0
11/02/2022,01:50:39,0.000,0.0,0.0,0.0
11/02/2022,01:51:31,0.000,0.0,0.0,0.0
11/02/2022,01:52:31,0.000,0.0,0.0,0.0
11/02/2022,01:53:31,0.000,0.0,0.0,0.0
11/02/2022,01:54:31,-0.001,0.0,0.0,0.0
11/02/2022,01:55:31,0.000,0.0,0.0,0.0
11/02/2022,01:56:31,0.000,0.0,0.0,0.0
11/02/2022,01:57:31,0.000,0.0,0.0,0.0
11/02/2022,01:58:32,-0.001,0.0,0.0,0.0
11/02/2022,01:59:31,0.000,0.0,0.0,0.0
11/02/2022,02:00:31,0.000,0.0,0.0,0.0
11/02/2022,02:01:39,0.000,0.0,0.0,0.0
11/02/2022,02:02:31,0.000,0.0,0.0,0.0
11/02/2022,02:03:39,0.001,0.0,0.0,0.0
11/02/2022,02:04:40,0.001,0.0,0.0,0.0
11/02/2022,02:05:31,0.000,0.0,0.0,0.0
11/02/2022,02:06:31,-0.001,0.0,0.0,0.0
11/02/2022,02:07:31,0.000,0.0,0.0,0.0
11/02/2022,02:08:31,0.001,0.0,0.0,0.0
11/02/2022,02:09:32,0.001,0.0,0.0,0.0
11/02/2022,02:10:31,-0.000,0.0,0.0,0.0
11/02/2022,02:11:39,0.000,0.0,0.0,0.0
11/02/2022,02:12:40,0.000,0.0,0.0,0.0
11/02/2022,02:13:31,0.001,0.0,0.0,0.0
11/02/2022,02:14:31,0.000,0.0,0.0,0.0
11/02/2022,02:15:31,0.000,0.0,0.0,0.0
11/02/2022,02:16:31,0.001,0.0,0.0,0.0
11/02/2022,02:17:31,-0.000,0.0,0.0,0.0
11/02/2022,02:18:31,0.000,0.0,0.0,0.0
11/02/2022,02:19:39,-0.000,0.0,0.0,0.0
11/02/2022,02:21:32,0.001,0.0,0.0,0.0
11/02/2022,02:22:31,0.000,0.0,0.0,0.0
11/02/2022,02:23:31,-0.000,0.0,0.0,0.0
11/02/2022,02:24:31,0.000,0.0,0.0,0.0
11/02/2022,02:25:32,0.000,0.0,0.0,0.0
11/02/2022,02:26:31,0.000,0.0,0.0,0.0
11/02/2022,02:27:31,0.001,0.0,0.0,0.0
11/02/2022,02:28:31,0.000,0.0,0.0,0.0
11/02/2022,02:29:31,0.000,0.0,0.0,0.0
11/02/2022,02:30:31,0.000,0.0,0.0,0.0
11/02/2022,02:31:31,-0.001,0.0,0.0,0.0
11/02/2022,02:32:31,0.000,0.0,0.0,0.0
11/02/2022,02:33:31,0.001,0.0,0.0,0.0
11/02/2022,02:34:31,-0.000,0.0,0.0,0.0
11/02/2022,02:35:31,0.000,0.0,0.0,0.0
11/02/2022,02:36:31,0.000,0.0,0.0,0.0
11/02/2022,02:37:31,0.000,0.0,0.0,0.0
11/02/2022,02:38:31,0.000,0.0,0.0,0.0
11/02/2022,02:39:39,0.000,0.0,0.0,0.0
11/02/2022,02:40:31,0.000,0.0,0.0,0.0
11/02/2022,02:41:31,0.001,0.0,0.0,0.0
11/02/2022,02:42:31,0.001,0.0,0.0,0.0
11/02/2022,02:43:31,0.001,0.0,0.0,0.0
11/02/2022,02:44:31,0.000,0.0,0.0,0.0
11/02/2022,02:45:30,0.001,0.0,0.0,0.0
11/02/2022,02:46:31,0.000,0.0,0.0,0.0
11/02/2022,02:47:31,-0.001,0.0,0.0,0.0
11/02/2022,02:48:32,0.001,0.0,0.0,0.0
11/02/2022,02:49:31,-0.000,0.0,0.0,0.0
11/02/2022,02:50:39,-0.001,0.0,0.0,0.0
11/02/2022,02:51:31,0.001,0.0,0.0,0.0
11/02/2022,02:52:31,0.001,0.0,0.0,0.0
11/02/2022,02:53:31,0.001,0.0,0.0,0.0
11/02/2022,02:54:31,0.000,0.0,0.0,0.0
11/02/2022,02:55:31,0.000,0.0,0.0,0.0
11/02/2022,02:56:31,-0.001,0.0,0.0,0.0
11/02/2022,02:57:31,0.000,0.0,0.0,0.0
11/02/2022,02:58:31,0.000,0.0,0.0,0.0
11/02/2022,02:59:31,0.000,0.0,0.0,0.0
11/02/2022,03:00:32,0.001,0.0,0.0,0.0
11/02/2022,03:01:39,0.000,0.0,0.0,0.0
11/02/2022,03:02:31,0.000,0.0,0.0,0.0
11/02/2022,03:03:32,0.000,0.0,0.0,0.0
11/02/2022,03:04:39,0.002,0.0,0.0,0.0
11/02/2022,03:05:31,0.000,0.0,0.0,0.0
11/02/2022,03:06:31,0.001,0.0,0.0,0.0
11/02/2022,03:07:31,0.000,0.0,0.0,0.0
11/02/2022,03:08:31,0.000,0.0,0.0,0.0
11/02/2022,03:09:31,0.000,0.0,0.0,0.0
11/02/2022,03:10:31,-0.000,0.0,0.0,0.0
11/02/2022,03:11:31,0.000,0.0,0.0,0.0
11/02/2022,03:12:31,0.000,0.0,0.0,0.0
11/02/2022,03:13:31,-0.000,0.0,0.0,0.0
11/02/2022,03:14:31,0.000,0.0,0.0,0.0
11/02/2022,03:15:31,0.001,0.0,0.0,0.0
11/02/2022,03:16:31,0.000,0.0,0.0,0.0
11/02/2022,03:17:31,0.000,0.0,0.0,0.0
11/02/2022,03:18:31,0.000,0.0,0.0,0.0
11/02/2022,03:19:31,-0.000,0.0,0.0,0.0
11/02/2022,03:20:31,-0.001,0.0,0.0,0.0
11/02/2022,03:21:32,0.000,0.0,0.0,0.0
11/02/2022,03:22:40,0.000,0.0,0.0,0.0
11/02/2022,03:23:43,0.000,0.0,0.0,0.0
11/02/2022,03:25:32,0.000,0.0,0.0,0.0
11/02/2022,03:26:32,0.000,0.0,0.0,0.0
11/02/2022,03:27:31,0.000,0.0,0.0,0.0
11/02/2022,03:28:32,0.001,0.0,0.0,0.0
11/02/2022,03:29:31,0.000,0.0,0.0,0.0
11/02/2022,03:30:33,0.000,0.0,0.0,0.0
11/02/2022,03:31:31,0.000,0.0,0.0,0.0
11/02/2022,03:32:32,0.000,0.0,0.0,0.0
11/02/2022,03:33:40,0.000,0.0,0.0,0.0
11/02/2022,03:34:31,-0.000,0.0,0.0,0.0
11/02/2022,03:35:31,0.000,0.0,0.0,0.0
11/02/2022,03:36:39,-0.000,0.0,0.0,0.0
11/02/2022,03:37:31,0.001,0.0,0.0,0.0
11/02/2022,03:38:32,0.000,0.0,0.0,0.0
11/02/2022,03:39:40,-0.000,0.0,0.0,0.0
11/02/2022,03:40:32,-0.001,0.0,0.0,0.0
11/02/2022,03:41:31,0.000,0.0,0.0,0.0
11/02/2022,03:42:31,0.001,0.0,0.0,0.0
11/02/2022,03:43:31,-0.000,0.0,0.0,0.0
11/02/2022,03:44:32,0.000,0.0,0.0,0.0
11/02/2022,03:45:31,0.000,0.0,0.0,0.0
11/02/2022,03:46:31,0.001,0.0,0.0,0.0
11/02/2022,03:47:40,-0.001,0.0,0.0,0.0
11/02/2022,03:48:31,0.000,0.0,0.0,0.0
11/02/2022,03:49:32,-0.001,0.0,0.0,0.0
11/02/2022,03:50:32,-0.001,0.0,0.0,0.0
11/02/2022,03:51:31,-0.001,0.0,0.0,0.0
11/02/2022,03:52:31,-0.001,0.0,0.0,0.0
11/02/2022,03:53:31,-0.000,0.0,0.0,0.0
11/02/2022,03:54:32,0.000,0.0,0.0,0.0
11/02/2022,03:55:31,0.000,0.0,0.0,0.0
11/02/2022,03:56:31,0.000,0.0,0.0,0.0
11/02/2022,03:57:40,-0.000,0.0,0.0,0.0
11/02/2022,03:58:31,0.000,0.0,0.0,0.0
11/02/2022,03:59:33,0.001,0.0,0.0,0.0
11/02/2022,04:00:32,-0.001,0.0,0.0,0.0
11/02/2022,04:01:32,-0.001,0.0,0.0,0.0
11/02/2022,04:02:32,-0.000,0.0,0.0,0.0
11/02/2022,04:03:31,0.000,0.0,0.0,0.0
11/02/2022,04:04:31,-0.000,0.0,0.0,0.0
11/02/2022,04:05:40,0.000,0.0,0.0,0.0
11/02/2022,04:06:31,-0.001,0.0,0.0,0.0
11/02/2022,04:07:32,0.000,0.0,0.0,0.0
11/02/2022,04:08:31,-0.000,0.0,0.0,0.0
11/02/2022,04:09:31,0.000,0.0,0.0,0.0
11/02/2022,04:10:31,0.001,0.0,0.0,0.0
11/02/2022,04:11:31,-0.000,0.0,0.0,0.0
11/02/2022,04:12:32,0.001,0.0,0.0,0.0
11/02/2022,04:13:31,-0.001,0.0,0.0,0.0
11/02/2022,04:14:31,0.001,0.0,0.0,0.0
11/02/2022,04:15:48,-0.001,0.0,0.0,0.0
11/02/2022,04:17:32,0.000,0.0,0.0,0.0
11/02/2022,04:18:31,-0.000,0.0,0.0,0.0
11/02/2022,04:19:31,0.000,0.0,0.0,0.0
11/02/2022,04:20:31,0.000,0.0,0.0,0.0
11/02/2022,04:21:31,0.000,0.0,0.0,0.0
11/02/2022,04:22:39,0.001,0.0,0.0,0.0
11/02/2022,04:23:32,0.000,0.0,0.0,0.0
11/02/2022,04:24:32,-0.000,0.0,0.0,0.0
11/02/2022,04:25:31,-0.000,0.0,0.0,0.0
11/02/2022,04:26:31,0.001,0.0,0.0,0.0
11/02/2022,04:27:31,-0.000,0.0,0.0,0.0
11/02/2022,04:28:31,0.001,0.0,0.0,0.0
11/02/2022,04:29:32,0.000,0.0,0.0,0.0
11/02/2022,04:30:32,0.001,0.0,0.0,0.0
11/02/2022,04:31:32,0.000,0.0,0.0,0.0
11/02/2022,04:32:32,-0.000,0.0,0.0,0.0
11/02/2022,04:33:31,0.000,0.0,0.0,0.0
11/02/2022,04:34:31,0.001,0.0,0.0,0.0
11/02/2022,04:35:31,-0.000,0.0,0.0,0.0
11/02/2022,04:36:31,0.001,0.0,0.0,0.0
11/02/2022,04:37:40,0.001,0.0,0.0,0.0
11/02/2022,04:38:31,0.001,0.0,0.0,0.0
11/02/2022,04:39:32,-0.001,0.0,0.0,0.0
11/02/2022,04:40:40,0.001,0.0,0.0,0.0
11/02/2022,04:41:31,-0.001,0.0,0.0,0.0
11/02/2022,04:42:32,-0.001,0.0,0.0,0.0
11/02/2022,04:43:39,0.001,0.0,0.0,0.0
11/02/2022,04:44:31,0.000,0.0,0.0,0.0
11/02/2022,04:45:40,0.001,0.0,0.0,0.0
11/02/2022,04:46:40,0.000,0.0,0.0,0.0
11/02/2022,04:47:32,-0.000,0.0,0.0,0.0
11/02/2022,04:48:32,0.000,0.0,0.0,0.0
11/02/2022,04:49:31,0.000,0.0,0.0,0.0
11/02/2022,04:50:32,0.000,0.0,0.0,0.0
11/02/2022,04:51:31,-0.001,0.0,0.0,0.0
11/02/2022,04:52:32,0.000,0.0,0.0,0.0
11/02/2022,04:53:31,-0.001,0.0,0.0,0.0
11/02/2022,04:54:40,-0.001,0.0,0.0,0.0
11/02/2022,04:55:31,-0.001,0.0,0.0,0.0
11/02/2022,04:56:31,-0.001,0.0,0.0,0.0
11/02/2022,04:57:31,-0.001,0.0,0.0,0.0
11/02/2022,04:58:31,-0.001,0.0,0.0,0.0
11/02/2022,04:59:31,-0.000,0.0,0.0,0.0
11/02/2022,05:00:32,0.001,0.0,0.0,0.0
11/02/2022,05:01:31,-0.000,0.0,0.0,0.0
11/02/2022,05:02:31,0.001,0.0,0.0,0.0
11/02/2022,05:03:31,0.000,0.0,0.0,0.0
11/02/2022,05:04:32,0.000,0.0,0.0,0.0
11/02/2022,05:05:32,-0.001,0.0,0.0,0.0
11/02/2022,05:06:31,-0.000,0.0,0.0,0.0
11/02/2022,05:07:39,-0.000,0.0,0.0,0.0
11/02/2022,05:08:40,-0.001,0.0,0.0,0.0
11/02/2022,05:09:31,-0.000,0.0,0.0,0.0
11/02/2022,05:10:31,-0.000,0.0,0.0,0.0
11/02/2022,05:11:31,-0.000,0.0,0.0,0.0
11/02/2022,05:12:40,-0.000,0.0,0.0,0.0
11/02/2022,05:13:32,-0.000,0.0,0.0,0.0
11/02/2022,05:14:31,-0.001,0.0,0.0,0.0
11/02/2022,05:15:40,-0.000,0.0,0.0,0.0
11/02/2022,05:16:32,-0.000,0.0,0.0,0.0
11/02/2022,05:17:32,-0.001,0.0,0.0,0.0
11/02/2022,05:18:32,-0.001,0.0,0.0,0.0
11/02/2022,05:19:32,-0.001,0.0,0.0,0.0
11/02/2022,05:20:31,-0.001,0.0,0.0,0.0
11/02/2022,05:21:32,-0.000,0.0,0.0,0.0
11/02/2022,05:22:32,-0.000,0.0,0.0,0.0
11/02/2022,05:23:40,0.000,0.0,0.0,0.0
11/02/2022,05:24:31,-0.001,0.0,0.0,0.0
11/02/2022,05:25:31,0.000,0.0,0.0,0.0
11/02/2022,05:26:40,-0.000,0.0,0.0,0.0
11/02/2022,05:27:31,-0.001,0.0,0.0,0.0
11/02/2022,05:29:32,0.000,0.0,0.0,0.0
11/02/2022,05:30:31,-0.000,0.0,0.0,0.0
11/02/2022,05:31:31,-0.000,0.0,0.0,0.0
11/02/2022,05:32:31,-0.001,0.0,0.0,0.0
11/02/2022,05:33:32,-0.000,0.0,0.0,0.0
11/02/2022,05:34:32,-0.000,0.0,0.0,0.0
11/02/2022,05:35:31,0.000,0.0,0.0,0.0
11/02/2022,05:36:39,-0.000,0.0,0.0,0.0
11/02/2022,05:37:31,0.000,0.0,0.0,0.0
11/02/2022,05:38:32,-0.000,0.0,0.0,0.0
11/02/2022,05:39:32,0.000,0.0,0.0,0.0
11/02/2022,05:40:31,-0.001,0.0,0.0,0.0
11/02/2022,05:41:31,-0.001,0.0,0.0,0.0
11/02/2022,05:42:32,-0.000,0.0,0.0,0.0
11/02/2022,05:43:31,-0.000,0.0,0.0,0.0
11/02/2022,05:44:40,-0.001,0.0,0.0,0.0
11/02/2022,05:45:31,-0.001,0.0,0.0,0.0
11/02/2022,05:46:31,-0.000,0.0,0.0,0.0
11/02/2022,05:47:31,0.000,0.0,0.0,0.0
11/02/2022,05:48:32,-0.001,0.0,0.0,0.0
11/02/2022,05:49:32,-0.000,0.0,0.0,0.0
11/02/2022,05:50:32,-0.000,0.0,0.0,0.0
11/02/2022,05:51:32,-0.000,0.0,0.0,0.0
11/02/2022,05:52:31,-0.001,0.0,0.0,0.0
11/02/2022,05:53:31,-0.000,0.0,0.0,0.0
11/02/2022,05:54:40,0.000,0.0,0.0,0.0
11/02/2022,05:55:31,0.001,0.0,0.0,0.0
11/02/2022,05:56:31,-0.000,0.0,0.0,0.0
11/02/2022,05:57:31,0.000,0.0,0.0,0.0
11/02/2022,05:58:32,-0.000,0.0,0.0,0.0
11/02/2022,05:59:31,-0.000,0.0,0.0,0.0
11/02/2022,06:00:32,-0.001,0.0,0.0,0.0
11/02/2022,06:01:31,0.000,0.0,0.0,0.0
11/02/2022,06:02:32,-0.000,0.0,0.0,0.0
11/02/2022,06:03:32,-0.000,0.0,0.0,0.0
11/02/2022,06:04:32,-0.000,0.0,0.0,0.0
11/02/2022,06:05:33,-0.000,0.0,0.0,0.0
11/02/2022,06:06:32,-0.000,0.0,0.0,0.0
11/02/2022,06:07:31,-0.000,0.0,0.0,0.0
11/02/2022,06:08:48,-0.001,0.0,0.0,0.0
11/02/2022,06:10:40,0.001,0.0,0.0,0.0
11/02/2022,06:11:31,-0.000,0.0,0.0,0.0
11/02/2022,06:12:31,-0.001,0.0,0.0,0.0
11/02/2022,06:13:31,-0.000,0.0,0.0,0.0
11/02/2022,06:14:32,-0.000,0.0,0.0,0.0
11/02/2022,06:15:31,-0.001,0.0,0.0,0.0
11/02/2022,06:16:40,-0.000,0.0,0.0,0.0
11/02/2022,06:17:31,-0.001,0.0,0.0,0.0
11/02/2022,06:18:32,0.000,0.0,0.0,0.0
11/02/2022,06:19:32,0.000,0.0,0.0,0.0
11/02/2022,06:20:31,-0.000,0.0,0.0,0.0
11/02/2022,06:21:32,-0.001,0.0,0.0,0.0
11/02/2022,06:22:33,0.000,0.0,0.0,0.0
11/02/2022,06:23:31,-0.000,0.0,0.0,0.0
11/02/2022,06:24:31,-0.001,0.0,0.0,0.0
11/02/2022,06:25:31,-0.001,0.0,0.0,0.0
11/02/2022,06:26:40,-0.000,0.0,0.0,0.0
11/02/2022,06:27:32,0.000,0.0,0.0,0.0
11/02/2022,06:28:31,-0.001,0.0,0.0,0.0
11/02/2022,06:29:31,-0.001,0.0,0.0,0.0
11/02/2022,06:30:32,-0.001,0.0,0.0,0.0
11/02/2022,06:31:32,-0.001,0.0,0.0,0.0
11/02/2022,06:32:31,-0.000,0.0,0.0,0.0
11/02/2022,06:33:31,-0.000,0.0,0.0,0.0
11/02/2022,06:34:40,-0.000,0.0,0.0,0.0
11/02/2022,06:35:31,-0.000,0.0,0.0,0.0
11/02/2022,06:36:31,-0.000,0.0,0.0,0.0
11/02/2022,06:37:39,-0.000,0.0,0.0,0.0
11/02/2022,06:38:31,-0.000,0.0,0.0,0.0
11/02/2022,06:39:32,-0.001,0.0,0.0,0.0
11/02/2022,06:40:40,0.000,0.0,0.0,0.0
11/02/2022,06:41:32,0.000,0.0,0.0,0.0
11/02/2022,06:42:31,-0.001,0.0,0.0,0.0
11/02/2022,06:43:31,-0.001,0.0,0.0,0.0
11/02/2022,06:44:32,0.001,0.0,0.0,0.0
11/02/2022,06:45:22,-0.001,0.0,0.0,0.0
11/02/2022,06:46:33,0.000,0.0,0.0,0.0
11/02/2022,06:47:32,-0.000,0.0,0.0,0.0
11/02/2022,06:48:39,0.001,0.0,0.0,0.0
11/02/2022,06:49:32,-0.001,0.0,0.0,0.0
11/02/2022,06:50:31,-0.001,0.0,0.0,0.0
11/02/2022,06:51:31,-0.000,0.0,0.0,0.0
11/02/2022,06:52:31,0.000,0.0,0.0,0.0
11/02/2022,06:53:32,-0.001,0.0,0.0,0.0
11/02/2022,06:54:32,-0.000,0.0,0.0,0.0
11/02/2022,06:55:31,-0.000,0.0,0.0,0.0
11/02/2022,06:56:32,0.000,0.0,0.0,0.0
11/02/2022,06:57:31,-0.000,0.0,0.0,0.0
11/02/2022,06:58:40,-0.000,0.0,0.0,0.0
11/02/2022,06:59:32,-0.001,0.0,0.0,0.0
11/02/2022,07:00:33,-0.001,0.0,0.0,0.0
11/02/2022,07:01:31,0.000,0.0,0.0,0.0
11/02/2022,07:02:32,-0.001,0.0,0.0,0.0
11/02/2022,07:03:31,0.000,0.0,0.0,0.0
11/02/2022,07:04:32,-0.001,0.0,0.0,0.0
11/02/2022,07:05:32,-0.001,0.0,0.0,0.0
11/02/2022,07:06:40,-0.001,0.0,0.0,0.0
11/02/2022,07:07:32,-0.001,0.0,0.0,0.0
11/02/2022,07:08:32,-0.000,0.0,0.0,0.0
11/02/2022,07:09:39,-0.000,0.0,0.0,0.0
11/02/2022,07:10:31,-0.000,0.0,0.0,0.0
11/02/2022,07:11:31,-0.000,0.0,0.0,0.0
11/02/2022,07:12:40,-0.000,0.0,0.0,0.0
11/02/2022,07:13:32,0.000,0.0,0.0,0.0
11/02/2022,07:14:31,-0.000,0.0,0.0,0.0
11/02/2022,07:15:31,-0.001,0.0,0.0,0.0
11/02/2022,07:16:31,0.001,0.0,0.0,0.0
11/02/2022,07:17:31,-0.001,0.0,0.0,0.0
11/02/2022,07:18:31,0.000,0.0,0.0,0.0
11/02/2022,07:19:32,0.000,0.0,0.0,0.0
11/02/2022,07:20:32,0.001,0.0,0.0,0.0
11/02/2022,07:21:31,0.000,0.0,0.0,0.0
11/02/2022,07:22:32,0.001,0.0,0.0,0.0
11/02/2022,07:23:31,0.000,0.0,0.0,0.0
11/02/2022,07:24:31,0.001,0.0,0.0,0.0
11/02/2022,07:25:31,0.001,0.0,0.0,0.0
11/02/2022,07:26:31,0.001,0.0,0.0,0.0
11/02/2022,07:27:31,0.001,0.0,0.0,0.0
11/02/2022,07:28:31,0.001,0.0,0.0,0.0
11/02/2022,07:29:31,0.001,0.0,0.0,0.0
11/02/2022,07:30:40,0.001,0.0,0.0,0.0
11/02/2022,07:31:31,0.001,0.0,0.0,0.0
11/02/2022,07:33:32,0.001,0.0,0.0,0.0
11/02/2022,07:34:32,0.002,0.0,0.0,0.0
11/02/2022,07:35:31,0.002,0.0,0.0,0.0
11/02/2022,07:36:32,0.002,0.0,0.0,0.0
11/02/2022,07:37:32,0.002,0.0,0.0,0.0
11/02/2022,07:38:39,0.002,0.0,0.0,0.0
11/02/2022,07:39:31,0.002,0.0,0.0,0.0
11/02/2022,07:40:32,0.002,0.0,0.0,0.0
11/02/2022,07:41:32,0.002,0.0,0.0,0.0
11/02/2022,07:42:32,0.002,0.0,0.0,0.0
11/02/2022,07:43:31,0.003,0.0,0.0,0.0
11/02/2022,07:44:32,0.003,0.0,0.0,0.0
11/02/2022,07:45:32,0.004,0.0,0.0,0.0
11/02/2022,07:46:31,0.004,0.0,0.0,0.0
11/02/2022,07:47:33,0.004,0.0,0.0,0.0
11/02/2022,07:48:31,0.004,0.0,0.0,0.0
11/02/2022,07:49:32,0.003,0.0,0.0,0.0
11/02/2022,07:50:32,0.004,0.0,0.0,0.0
11/02/2022,07:51:31,0.005,0.0,0.0,0.0
11/02/2022,07:52:31,0.005,0.0,0.0,0.0
11/02/2022,07:53:31,0.005,0.0,0.0,0.0
11/02/2022,07:54:31,0.005,0.0,0.0,0.0
11/02/2022,07:55:31,0.006,0.0,0.0,0.0
11/02/2022,07:56:31,0.006,0.0,0.0,0.0
11/02/2022,07:57:31,0.006,0.0,0.0,0.0
11/02/2022,07:58:31,0.007,0.0,0.0,0.0
11/02/2022,07:59:39,0.007,0.0,0.0,0.0
11/02/2022,08:00:32,0.007,0.0,0.0,0.0
11/02/2022,08:01:32,0.008,0.0,0.001,0.001
11/02/2022,08:02:32,0.008,0.0,0.001,0.0
11/02/2022,08:03:32,0.009,0.0,0.001,0.0
11/02/2022,08:04:31,0.009,0.0,0.001,0.0
11/02/2022,08:05:31,0.010,0.0,0.001,0.0
11/02/2022,08:06:32,0.010,0.0,0.001,0.0
11/02/2022,08:07:32,0.011,0.0,0.002,0.001
11/02/2022,08:08:31,0.012,0.0,0.002,0.0
11/02/2022,08:09:39,0.012,0.0,0.002,0.0
11/02/2022,08:10:32,0.012,0.0,0.002,0.0
11/02/2022,08:11:32,0.014,0.0,0.002,0.0
11/02/2022,08:12:31,0.014,0.0,0.003,0.001
11/02/2022,08:13:32,0.015,0.0,0.003,0.0
11/02/2022,08:14:31,0.015,0.0,0.003,0.0
11/02/2022,08:15:31,0.016,0.0,0.003,0.0
11/02/2022,08:16:32,0.017,0.0,0.004,0.001
11/02/2022,08:17:40,0.018,0.0,0.004,0.0
11/02/2022,08:18:31,0.018,0.0,0.004,0.0
11/02/2022,08:19:31,0.019,0.0,0.004,0.0
11/02/2022,08:20:32,0.021,0.0,0.005,0.001
11/02/2022,08:21:31,0.021,0.0,0.005,0.0
11/02/2022,08:22:32,0.022,0.0,0.006,0.001
11/02/2022,08:23:40,0.023,0.0,0.006,0.0
11/02/2022,08:24:32,0.024,0.0,0.006,0.0
11/02/2022,08:25:32,0.024,0.0,0.007,0.001
11/02/2022,08:26:31,0.027,0.0,0.007,0.0
11/02/2022,08:27:31,0.026,0.0,0.008,0.001
11/02/2022,08:28:32,0.027,0.0,0.008,0.0
11/02/2022,08:29:31,0.028,0.0,0.008,0.0
11/02/2022,08:30:31,0.029,0.0,0.009,0.001
11/02/2022,08:31:31,0.030,0.0,0.009,-0.0
11/02/2022,08:32:31,0.030,0.0,0.01,0.001
11/02/2022,08:33:31,0.032,0.0,0.01,0.0
11/02/2022,08:34:31,0.033,0.0,0.011,0.001
11/02/2022,08:35:31,0.034,0.0,0.012,0.001
11/02/2022,08:36:31,0.035,0.0,0.012,0.0
11/02/2022,08:37:31,0.036,0.0,0.013,0.001
11/02/2022,08:38:40,0.038,0.0,0.013,-0.0
11/02/2022,08:39:32,0.038,0.0,0.014,0.001
11/02/2022,08:40:32,0.039,0.0,0.015,0.001
11/02/2022,08:41:40,0.040,0.0,0.015,0.0
11/02/2022,08:42:31,0.040,0.0,0.016,0.001
11/02/2022,08:43:32,0.042,0.0,0.017,0.001
11/02/2022,08:44:24,0.042,0.0,0.017,0.0
11/02/2022,08:45:32,0.044,0.0,0.018,0.001
11/02/2022,08:46:32,0.044,0.0,0.019,0.001
11/02/2022,08:47:32,0.046,0.0,0.019,0.0
11/02/2022,08:48:32,0.046,0.0,0.02,0.001
11/02/2022,08:49:31,0.048,0.0,0.021,0.001
11/02/2022,08:50:32,0.050,0.0,0.022,0.001
11/02/2022,08:51:32,0.050,0.0,0.023,0.001
11/02/2022,08:52:32,0.051,0.0,0.024,0.001
11/02/2022,08:53:32,0.052,0.0,0.024,0.0
11/02/2022,08:54:32,0.053,0.0,0.025,0.001
11/02/2022,08:55:32,0.054,0.0,0.026,0.001
11/02/2022,08:56:40,0.056,0.0,0.027,0.001
11/02/2022,08:57:32,0.055,0.0,0.028,0.001
11/02/2022,08:58:32,0.058,0.0,0.029,0.001
11/02/2022,08:59:32,0.058,0.0,0.03,0.001
11/02/2022,09:00:32,0.060,0.0,0.031,0.001
11/02/2022,09:01:32,0.061,0.0,0.032,0.001
11/02/2022,09:02:39,0.062,0.0,0.033,0.001
11/02/2022,09:03:32,0.063,0.0,0.034,0.001
11/02/2022,09:04:33,0.065,0.0,0.035,0.001
11/02/2022,09:05:32,0.066,0.0,0.036,0.001
11/02/2022,09:06:32,0.067,0.0,0.037,0.001
11/02/2022,09:07:32,0.069,0.0,0.038,0.001
11/02/2022,09:08:32,0.070,0.0,0.04,0.002
11/02/2022,09:09:31,0.071,0.0,0.041,0.001
11/02/2022,09:10:40,0.072,0.0,0.042,0.001
11/02/2022,09:11:32,0.074,0.0,0.043,0.001
11/02/2022,09:12:31,0.075,0.0,0.044,0.001
11/02/2022,09:13:31,0.076,0.0,0.046,0.002
11/02/2022,09:14:31,0.078,0.0,0.047,0.001
11/02/2022,09:15:32,0.079,0.0,0.048,0.001
11/02/2022,09:16:31,0.080,0.0,0.05,0.002
11/02/2022,09:17:31,0.083,0.0,0.051,0.001
11/02/2022,09:18:32,0.083,0.0,0.052,0.001
11/02/2022,09:19:32,0.085,0.0,0.054,0.002
11/02/2022,09:20:40,0.087,0.0,0.055,0.001
11/02/2022,09:21:32,0.087,0.0,0.057,0.002
11/02/2022,09:22:33,0.089,0.0,0.058,0.001
11/02/2022,09:23:31,0.091,0.0,0.06,0.002
11/02/2022,09:24:32,0.094,0.0,0.061,0.001
11/02/2022,09:25:31,0.095,0.0,0.063,0.002
11/02/2022,09:26:32,0.095,0.0,0.064,0.001
11/02/2022,09:27:32,0.099,0.0,0.066,0.002
11/02/2022,09:28:31,0.099,0.0,0.068,0.002
11/02/2022,09:29:32,0.101,0.0,0.069,0.001
11/02/2022,09:30:32,0.103,0.0,0.071,0.002
11/02/2022,09:31:31,0.106,0.0,0.073,0.002
11/02/2022,09:32:40,0.107,0.0,0.075,0.002
11/02/2022,09:33:32,0.109,0.0,0.076,0.001
11/02/2022,09:34:40,0.110,0.0,0.078,0.002
11/02/2022,09:35:32,0.112,0.0,0.08,0.002
11/02/2022,09:36:32,0.114,0.0,0.082,0.002
11/02/2022,09:37:32,0.115,0.0,0.084,0.002
11/02/2022,09:38:32,0.117,0.0,0.086,0.002
11/02/2022,09:39:32,0.119,0.0,0.088,0.002
11/02/2022,09:40:31,0.121,0.0,0.09,0.002
11/02/2022,09:41:40,0.123,0.0,0.092,0.002
11/02/2022,09:42:32,0.124,0.0,0.094,0.002
11/02/2022,09:43:32,0.126,0.0,0.096,0.002
11/02/2022,09:44:32,0.128,0.0,0.098,0.002
11/02/2022,09:45:33,0.129,0.0,0.1,0.002
11/02/2022,09:46:32,0.131,0.0,0.102,0.002
11/02/2022,09:47:32,0.133,0.0,0.104,0.002
11/02/2022,09:48:32,0.134,0.0,0.107,0.003
11/02/2022,09:49:32,0.136,0.0,0.109,0.002
11/02/2022,09:50:33,0.138,0.0,0.111,0.002
11/02/2022,09:51:32,0.140,0.0,0.113,0.002
11/02/2022,09:52:32,0.142,0.0,0.116,0.003
11/02/2022,09:53:32,0.144,0.0,0.118,0.002
11/02/2022,09:54:32,0.145,0.0,0.121,0.003
11/02/2022,09:55:32,0.147,0.0,0.123,0.002
11/02/2022,09:56:32,0.150,0.0,0.125,0.002
11/02/2022,09:57:40,0.151,0.0,0.128,0.003
11/02/2022,09:58:33,0.153,0.0,0.13,0.002
11/02/2022,10:00:32,0.156,0.0,0.136,0.006
11/02/2022,10:01:31,0.158,0.0,0.138,0.002
11/02/2022,10:02:41,0.160,0.0,0.141,0.003
11/02/2022,10:03:31,0.162,0.0,0.144,0.003
11/02/2022,10:04:32,0.165,0.0,0.146,0.002
11/02/2022,10:05:31,0.168,0.0,0.149,0.003
11/02/2022,10:06:31,0.169,0.0,0.152,0.003
11/02/2022,10:07:31,0.171,0.0,0.155,0.003
11/02/2022,10:08:32,0.174,0.0,0.158,0.003
11/02/2022,10:09:32,0.174,0.0,0.16,0.002
11/02/2022,10:10:32,0.177,0.0,0.163,0.003
11/02/2022,10:11:32,0.181,0.0,0.166,0.003
11/02/2022,10:12:32,0.182,0.0,0.169,0.003
11/02/2022,10:13:40,0.185,0.0,0.173,0.004
11/02/2022,10:14:32,0.184,0.0,0.176,0.003
11/02/2022,10:15:32,0.187,0.0,0.179,0.003
11/02/2022,10:16:40,0.190,0.0,0.182,0.003
11/02/2022,10:17:32,0.192,0.0,0.185,0.003
11/02/2022,10:19:24,0.195,0.0,0.191,0.006
11/02/2022,10:21:33,0.199,0.0,0.198,0.007
11/02/2022,10:22:32,0.200,0.0,0.201,0.003
11/02/2022,10:23:32,0.202,0.0,0.205,0.004
11/02/2022,10:24:31,0.206,0.0,0.208,0.003